Starlink 36156

operational
NORAD ID: 67006 Int'l Des: 2025-293 Owner: SPXS Country: US Constellation: starlink
LEOCIRCULAR

About Starlink 36156

Description loading...

Live Position

Loading 3D Globe...

Upcoming Passes

Altitude History

Altitude vs Time

uPlot chart will show altitude changes over time

Two-Line Element Set

1 67006U 25293D 26047.58335648 .00020823 00000-0 17493-2 0 9992
2 67006 70.0015 147.8255 0003719 272.3251 49.4317 14.98292789 5897
Epoch: Feb 16, 2026 • Age: 9 hours

Current Status

Altitude 587.2 km
Velocity 7.57 km/s
Sub-Earth Point -45.53°S, 146.49°W
Launch Date Dec 10, 2025
Age 0.1 years
Type internet

Technical Details

Classification Payload
Mass 575.00 kg
Dry Mass 530.00 kg
Total Mass 575.00 kg
Length 0.30 m
Diameter 4.10 m
Span 29.00 m
Shape Box + pan
Manufacturer SPXS
Bus Type Starlink V2MO
Phase Status In Orbit
Owner/State SPXS/US

Large Constellations

Loading constellations...